[[{"header":{"parameterUnit":"m.s-1","parameterCategory":1,"la1":30.2991,"la2":30.254,"lo1":-89.0895,"lo2":-89.0444,"dy":0.0017,"dx":0.0017,"nx":28,"ny":28,"refTime":"2023-08-02T21:00:00:Z","depth":0,"parameterNumber":2,"parameterNumberName":"U-component_of_WINDS"},"data":[0,0,0,0,0,0,0,0,0,0,0,0,0,0,0,0,0,0,0,0,0,0,0,0,0,0,0,0,0,0,0,0,0,0,0,0,0,0,0,0,0,0,0,0,0,0,0,0,0,0,0,0,0,0,0,0,0,0,1.8992,1.8992,0,1.8997,1.8997,1.8997,1.8957,1.8956,1.8955,1.8954,1.8957,1.8959,1.896,0,0,0,0,0,0,0,0,0,0,0,0,0,1.8946,1.8947,1.8992,1.8992,1.8992,1.8996,1.8997,1.8997,1.8957,1.8956,1.8954,1.8953,1.8957,1.8958,1.896,0,0,0,0,0,0,0,0,0,0,0,0,0,1.896,1.8947,1.8992,1.8973,1.8971,1.8996,1.8997,1.8997,1.8957,1.8956,1.8954,1.8952,1.8957,1.8958,1.896,1.9004,0,0,1.8965,1.8966,0,0,0,0,0,0,0,0,1.8959,1.8961,1.8975,1.8974,1.8972,1.8974,1.8982,1.8999,1.8958,1.8962,1.8954,1.8952,1.8964,1.8965,1.897,1.9004,1.9004,1.8965,1.8966,1.8967,1.8968,0,0,0,0,0,0,0,1.8958,1.8961,1.8994,1.8976,1.8974,1.8963,1.8963,1.8985,1.8973,1.8962,1.8959,1.896,1.8963,1.8968,1.897,1.9004,1.8965,1.8967,1.8968,1.8968,1.907,1.9072,0,0,0,0,0,0,1.896,1.896,1.8993,1.8994,1.8961,1.8965,1.8965,1.8975,1.8972,1.897,1.8962,1.8958,1.8966,1.8968,1.897,1.9018,1.8967,1.8969,1.897,1.9069,1.9071,1.9072,0,0,0,0,0,0,1.8959,1.8963,1.8993,1.8976,1.8979,1.8968,1.8979,1.8976,1.8981,1.8972,1.8969,1.8969,1.8965,1.8967,1.8995,1.9017,1.8969,1.8971,1.9067,1.9069,1.9072,1.9116,0,0,0,0,0,0,1.8958,1.8963,1.898,1.8977,1.898,1.9019,1.8981,1.8978,1.8985,1.898,1.8978,1.8977,1.8964,1.8992,1.8996,1.9019,1.8972,1.9064,1.9068,1.9071,1.9113,1.912,1.9126,0,0,0,0,0,1.8956,1.8993,1.8982,1.8986,1.9002,1.9021,1.9023,1.9007,1.8987,1.9003,1.8997,1.8977,1.9015,1.8996,1.9,1.9023,1.9063,1.9067,1.9071,1.911,1.9118,1.9126,0,0,0,0,0,0,1.9,1.8993,1.8979,1.9017,1.902,1.9014,1.9034,1.9018,1.9027,1.9022,1.9003,1.9002,1.9032,1.9031,1.901,1.9063,1.9035,1.904,1.9063,1.9072,1.9078,1.9077,1.8974,0,0,0,0,0,1.9014,1.9031,1.9023,1.9057,1.9059,1.9046,1.9054,1.9042,1.9044,1.9045,1.9041,1.9043,1.9055,1.9064,1.9075,1.9113,1.911,1.9131,1.9137,1.9143,1.9147,1.9163,1.9172,1.9085,1.9085,1.9085,0,0,1.9043,1.9041,1.9053,1.9065,1.9066,1.9082,1.9048,1.9067,1.9078,1.9048,1.9073,1.907,1.9071,1.9103,1.9117,1.9102,1.917,1.9148,1.9152,1.9153,1.9168,1.9176,1.9184,1.9087,1.9087,1.9087,0,0,1.9104,1.9105,1.9131,1.9133,1.9134,1.9125,1.9132,1.9128,1.9125,1.9149,1.9126,1.9139,1.9161,1.9162,1.9165,1.9224,1.9204,1.9228,1.9263,1.9279,1.9286,1.9292,1.931,1.9317,1.9232,1.9232,1.9232,0,1.914,1.9164,1.9147,1.9167,1.9172,1.9145,1.917,1.9172,1.9177,1.9181,1.9165,1.919,1.9189,1.9219,1.9233,1.9238,1.9243,1.9227,1.9287,1.9292,1.9298,1.9314,1.9322,1.9235,1.9235,1.9234,1.9234,0,1.9206,1.9223,1.9244,1.9248,1.9256,1.9279,1.9264,1.9274,1.9261,1.9253,1.9277,1.9275,1.9283,1.929,1.9278,1.9318,1.9309,1.929,1.9261,1.9309,1.9324,1.9331,1.9239,1.9238,1.9237,1.9236,0,0,1.9294,1.9288,1.9296,1.9296,1.9295,1.9307,1.9327,1.9335,1.9343,1.9347,1.9362,1.938,1.9362,1.9366,1.9354,1.9369,1.9411,1.9348,1.9347,1.9357,1.9452,1.9464,1.9472,1.9399,1.9401,1.9402,1.9451,0,1.9351,1.9386,1.937,1.9406,1.942,1.9393,1.9411,1.9411,1.9404,1.9414,1.9407,1.9419,1.9396,1.9397,1.9411,1.9403,1.9429,1.94,1.9411,1.9412,1.9409,1.948,1.9494,1.9541,1.9457,1.9458,1.9459,0,1.9422,1.9427,1.9464,1.9458,1.9463,1.9479,1.9483,1.9494,1.9493,1.9487,1.949,1.9474,1.9492,1.9464,1.9487,1.9467,1.9471,1.9468,1.9469,1.9468,1.9437,1.9479,1.9555,1.9561,1.9469,1.9468,1.9467,0,1.9479,1.9496,1.9519,1.9521,1.9515,1.9526,1.9524,1.9521,1.9526,1.953,1.9533,1.9539,1.9542,1.9547,1.9532,1.9514,1.9556,1.9528,1.955,1.955,1.9558,1.9558,1.9634,1.9565,1.9565,1.9565,1.9565,0,1.9542,1.9565,1.9544,1.9559,1.9582,1.9564,1.9588,1.9583,1.9581,1.9593,1.9571,1.9582,1.9563,1.9572,1.956,1.9579,1.9582,1.9576,1.9572,1.9576,1.9577,1.9577,1.9573,1.9567,1.9566,1.9566,1.9566,0,1.961,1.9597,1.962,1.9612,1.961,1.9628,1.962,1.9632,1.9623,1.9638,1.964,1.9627,1.9636,1.9622,1.963,1.9622,1.9648,1.964,1.9648,1.9645,1.9666,1.9663,1.9744,1.9752,1.968,1.9681,1.9681,0,1.965,1.9666,1.9659,1.9665,1.9664,1.9674,1.9679,1.9661,1.9666,1.9665,1.9677,1.9684,1.9689,1.9704,1.9694,1.97,1.969,1.9718,1.9691,1.9694,1.9688,1.9686,1.9686,1.9723,1.9724,1.9725,1.9725,0,1.9721,1.9713,1.9721,1.9725,1.9731,1.9733,1.9735,1.9741,1.9722,1.9729,1.9737,1.9741,1.9748,1.9755,1.9757,1.9754,1.9736,1.9734,1.9739,1.9742,1.9745,1.9741,1.966,1.9732,1.9731,1.9731,1.9731,1.973,1.9774,1.9786,1.9782,1.979,1.9789,1.979,1.98,1.9792,1.9799,1.9803,1.9792,1.9803,1.9799,1.9801,1.9799,1.9806,1.9794,1.9802,1.9803,1.9805,1.9807,1.9746,1.9807,1.9807,1.9807,1.9807,1.9806,0,1.9842,1.9838,1.9845,1.9847,1.9852,1.9835,1.9835,1.9841,1.985,1.9849,1.9853,1.9862,1.9868,1.9858,1.9862,1.9869,1.9861,1.987,1.9868,1.9867,1.9819,1.9813,1.9877,1.9877,1.9877,1.9877,1.9877,1.9877,1.9878,1.9897,1.9888,1.9906,1.9901,1.9911,1.9912,1.9912,1.991,1.992,1.9925,1.9919,1.9913,1.9916,1.992,1.9916,1.9918,1.993,1.9924,1.9878,1.9871,1.9865,1.9859,1.9931,1.9931,1.9971,1.9971,1.9972]},{"header":{"parameterUnit":"m.s-1","parameterCategory":1,"la1":30.2991,"la2":30.254,"lo1":-89.0895,"lo2":-89.0444,"dy":0.0017,"dx":0.0017,"nx":28,"ny":28,"refTime":"2023-08-02T21:00:00:Z","depth":0,"parameterNumber":3,"parameterNumberName":"V-component_of_WINDS"},"data":[0,0,0,0,0,0,0,0,0,0,0,0,0,0,0,0,0,0,0,0,0,0,0,0,0,0,0,0,0,0,0,0,0,0,0,0,0,0,0,0,0,0,0,0,0,0,0,0,0,0,0,0,0,0,0,0,0,0,2.8939,2.8939,0,2.8914,2.8914,2.8914,2.8842,2.884,2.8839,2.8837,2.8813,2.8814,2.8814,0,0,0,0,0,0,0,0,0,0,0,0,0,2.8923,2.8924,2.8939,2.8939,2.8938,2.8914,2.8914,2.8914,2.8842,2.884,2.8838,2.8837,2.8812,2.8813,2.8814,0,0,0,0,0,0,0,0,0,0,0,0,0,2.8917,2.8924,2.8939,2.89,2.8896,2.8915,2.8914,2.8914,2.8843,2.884,2.8838,2.8836,2.8812,2.8813,2.8815,2.8869,0,0,2.8818,2.8819,0,0,0,0,0,0,0,0,2.8918,2.8918,2.8906,2.8902,2.8898,2.8879,2.8899,2.8899,2.8843,2.8863,2.8837,2.8835,2.8837,2.8836,2.8836,2.8868,2.8867,2.8818,2.8819,2.882,2.882,0,0,0,0,0,0,0,2.8918,2.8919,2.8929,2.8906,2.8901,2.8883,2.888,2.8899,2.8863,2.8861,2.8856,2.8854,2.8834,2.8835,2.8835,2.8867,2.8818,2.8819,2.882,2.8821,2.894,2.8942,0,0,0,0,0,0,2.8924,2.8919,2.893,2.8928,2.8902,2.8885,2.8881,2.8887,2.8863,2.8857,2.8856,2.8851,2.8834,2.8834,2.8834,2.8895,2.882,2.8821,2.8821,2.8938,2.8941,2.8943,0,0,0,0,0,0,2.8924,2.8926,2.8931,2.8922,2.8922,2.8888,2.8895,2.8888,2.8889,2.8859,2.8852,2.8864,2.8833,2.8832,2.8861,2.8893,2.8821,2.8822,2.8935,2.8939,2.8942,2.9018,0,0,0,0,0,0,2.8924,2.8926,2.8947,2.8924,2.8923,2.8958,2.8897,2.8889,2.8891,2.8884,2.8865,2.8859,2.8831,2.8859,2.8862,2.8893,2.8823,2.8932,2.8936,2.8941,2.9012,2.9024,2.9034,0,0,0,0,0,2.8924,2.897,2.8948,2.895,2.8948,2.896,2.896,2.8926,2.8895,2.8915,2.8895,2.886,2.8889,2.8863,2.8865,2.8898,2.8929,2.8935,2.894,2.9008,2.9022,2.9033,0,0,0,0,0,0,2.8999,2.8966,2.8942,2.8982,2.8974,2.8948,2.8973,2.8942,2.8944,2.8937,2.8895,2.8891,2.8925,2.8914,2.8885,2.8948,2.8903,2.891,2.8954,2.8967,2.8977,2.8978,2.8824,0,0,0,0,0,2.902,2.9033,2.9004,2.9042,2.9039,2.9007,2.9011,2.8986,2.8976,2.8973,2.8955,2.8947,2.8954,2.896,2.8966,2.9011,2.9005,2.9034,2.9045,2.9054,2.9059,2.9081,2.9093,2.8961,2.8961,2.8961,0,0,2.9064,2.9047,2.9058,2.9056,2.9047,2.9061,2.9005,2.9022,2.9032,2.8975,2.9,2.8987,2.8976,2.9012,2.9028,2.9004,2.9094,2.9061,2.9068,2.9069,2.9087,2.91,2.9111,2.8965,2.8964,2.8964,0,0,2.915,2.914,2.9169,2.9161,2.9148,2.9126,2.9134,2.9112,2.9101,2.9125,2.9083,2.9094,2.9108,2.91,2.9099,2.9182,2.9148,2.9185,2.9239,2.9261,2.9271,2.928,2.9308,2.9318,2.919,2.9191,2.9191,0,2.9206,2.9225,2.9189,2.9208,2.9208,2.9157,2.9186,2.9181,2.9171,2.9171,2.9146,2.9161,2.915,2.9183,2.9203,2.9204,2.921,2.9186,2.9273,2.9281,2.9289,2.9315,2.9326,2.9195,2.9195,2.9194,2.9194,0,2.9294,2.9308,2.9333,2.9323,2.9326,2.9351,2.9318,2.9325,2.9299,2.928,2.9305,2.9289,2.929,2.9296,2.9272,2.9326,2.9311,2.928,2.9234,2.9306,2.933,2.934,2.9201,2.92,2.9198,2.9197,0,0,2.9426,2.9395,2.9405,2.9399,2.9381,2.9391,2.9413,2.9413,2.9419,2.9414,2.943,2.9443,2.9413,2.9411,2.9385,2.9404,2.9469,2.937,2.9369,2.9387,2.9525,2.9548,2.956,2.9447,2.9449,2.945,2.9525,0,2.9507,2.9542,2.9509,2.955,2.9562,2.9513,2.9532,2.9523,2.9505,2.9512,2.9493,2.9502,2.9463,2.9461,2.9478,2.9457,2.9496,2.9452,2.9461,2.9462,2.9464,2.9573,2.9597,2.9668,2.9535,2.9536,2.9537,0,2.9605,2.9603,2.9645,2.9622,2.9626,2.9644,2.964,2.9648,2.9636,2.9621,2.9619,2.9588,2.9607,2.9563,2.9588,2.9559,2.9561,2.9551,2.9553,2.9552,2.9503,2.9572,2.9691,2.9701,2.9552,2.9551,2.955,0,2.9695,2.9703,2.9729,2.9726,2.9701,2.9714,2.9704,2.9689,2.9691,2.9688,2.9688,2.9688,2.9688,2.9688,2.9657,2.9629,2.9686,2.964,2.9673,2.9674,2.9686,2.9686,2.9805,2.9691,2.9691,2.969,2.969,0,2.9787,2.9814,2.9769,2.9784,2.9813,2.9775,2.9805,2.979,2.9778,2.9789,2.9748,2.976,2.9719,2.9726,2.9702,2.9726,2.9726,2.9715,2.9708,2.9717,2.9719,2.9717,2.9711,2.9693,2.9693,2.9692,2.9692,0,2.9892,2.9863,2.9887,2.9861,2.9855,2.9877,2.9855,2.9868,2.9848,2.9863,2.9864,2.9832,2.9838,2.9808,2.9809,2.9793,2.9828,2.9813,2.9831,2.9826,2.9861,2.9858,2.9982,2.9996,2.9875,2.9876,2.9877,0,2.9952,2.9971,2.9947,2.9952,2.9944,2.9952,2.9953,2.9916,2.9919,2.9906,2.9921,2.9924,2.9924,2.9936,2.9913,2.9913,2.9897,2.9941,2.9897,2.9906,2.9896,2.9894,2.9895,2.995,2.9951,2.9952,2.9953,0,3.006,3.0045,3.0048,3.0045,3.0048,3.0044,3.0038,3.0045,3.0005,3.001,3.0016,3.0016,3.0016,3.0019,3.0015,3.0004,2.9972,2.9967,2.9975,2.9984,2.9993,2.9987,2.9855,2.9964,2.9963,2.9963,2.9962,2.9961,3.0143,3.0158,3.0142,3.0147,3.0138,3.0133,3.0144,3.0124,3.0128,3.0125,3.0104,3.0113,3.01,3.009,3.0082,3.0089,3.0068,3.008,3.0082,3.0085,3.009,2.9994,3.0088,3.0088,3.0088,3.0087,3.0087,0,3.0248,3.0236,3.024,3.0232,3.0236,3.0205,3.0196,3.0201,3.021,3.02,3.02,3.0206,3.0209,3.0185,3.0185,3.0194,3.0179,3.0195,3.0193,3.0191,3.011,3.0103,3.0207,3.0207,3.0207,3.0207,3.0207,3.0207,3.0303,3.0325,3.0308,3.0325,3.0312,3.0321,3.0318,3.0313,3.0305,3.0313,3.0314,3.0299,3.0283,3.0281,3.0281,3.0274,3.0275,3.0296,3.0284,3.0208,3.0197,3.0186,3.0178,3.0297,3.0297,3.0364,3.0364,3.0365]}]]